Погода в Кустаревке

Россия / Рязанская область     54°15′48″N   42°15′55″E
темп.,
°C
ветер,
м/с
пор.,
м/с
влажн.,
%
обл.,
%
осадки,
мм/ч
давл.,
гПа
погр.,
м
21 апреля, ср
ср2100:00+4вюв92093100 6.9 10101216
03:00+7юв102188100 11.3 10061140
06:00+7юв101887100 0.2 10051120
09:00+8ююв81590100 0.4 10061222
12:00+12ююз7127572 0.8 10071361
15:00+7з3593100 1.5 1009351
18:00+5зюз3893100 0.7 1012627
21:00+5юз3890100 0.8 1015563
22 апреля, чт
чт2200:00+6ю2794100 0.0 1015283
03:00+5ю259789 0.1 1016113
06:00+5ю4129299 0.1 1017538
09:00+7юз478294 0.2 1019884
12:00+7юз478598 0.3 1020773
15:00+10юз566398 0.6 10201478
18:00+9ююз367084 0.1 1021304
21:00+5ююв23875 0.1 102236
23 апреля, пт
пт2300:00+6юв3782100 0.0 1021160
03:00+7ююв31179100 0.0 1021281
06:00+7ю4108291 0.2 1021269
09:00+12ю476798 0.4 1022445
12:00+16ююз445046 0.3 10211689
15:00+14юв246430 1.3 1020387
18:00+13юв367097 0.6 1019194
21:00+9юв3108467 0.6 1019219
24 апреля, сб
сб2400:00+8ююв398397 0.0 1018195
03:00+7юв369195 0.0 1016109
06:00+7юв399197 0.0 1015243
09:00+9юв51187100 3.0 1013750
12:00+13ююв686749 0.1 10111207
15:00+12ююз5875100 1.7 10091277
18:00+6з4891100 3.9 1011731
21:00+4зюз3793100 4.0 1011267
25 апреля, вс
вс2500:00+3юз37958 0.0 1011160
03:00+3юз38955 0.0 1012201
06:00+3юз410910 0.0 1013356
09:00+6зюз57685 0.0 10141043
12:00+9зюз574891 0.2 10142056
15:00+10зюз574698 0.2 10142134
18:00+8зюз37565 0.3 1015589
21:00+4юз35765 0.3 101790